Regional Weather Roundup
Issued by NWS

Home | Current Version | Previous Version | Text Only | Print | Product List | Glossary On
Versions: 1 2 3 4 5 6 7 8 9 10 11 12 13 14 15 16 17 18 19 20 21 22 23 24 25 26 27 28 29 30 31 32 33 34 35 36 37 38 39 40 41 42 43 44 45 46 47 48 49 50
000
ASUS44 KBMX 290910
RWRAL

ALABAMA REGIONAL WEATHER ROUNDUP
NATIONAL WEATHER SERVICE BIRMINGHAM AL
400 AM CDT THU JUN 29 2017

NOTE: "FAIR" INDICATES FEW OR NO CLOUDS BELOW 12,000 FEET
WITH NO SIGNIFICANT WEATHER AND/OR OBSTRUCTIONS TO VISIBILITY.

THE REMARK "TC" DENOTES TEMPERATURE IN DEGREES CELSIUS.

ALZ001>011-014-016>018-020-291000-
NORTH ALABAMA

CITY           SKY/WX    TMP DP  RH WIND       PRES   REMARKS
MUSCLE SHOALS  PTCLDY    70  65  84 SE3       30.07S
HUNTSVILLE     MOCLDY    72  68  87 SE5       30.08S
DECATUR        PTCLDY    68  66  93 CALM      30.08S
HALEYVILLE     NOT AVBL
GADSDEN        CLOUDY    76  68  76 SE6       30.11R
$$

ALZ012-013-022-023-030>036-040>044-291000-
WEST CENTRAL ALABAMA

CITY           SKY/WX    TMP DP  RH WIND       PRES   REMARKS
TUSCALOOSA     CLOUDY    74  72  93 NE3       30.05S
$$

ALZ015-024>027-033>036-040>044-291000-
CENTRAL ALABAMA

CITY           SKY/WX    TMP DP  RH WIND       PRES   REMARKS
BIRMINGHAM     CLOUDY    75  69  81 SE5       30.11R
MONTGOMERY     CLOUDY    75  71  87 E6        30.06S
SHELBY CO ARPT MOCLDY    74  72  93 CALM      30.08S
MAXWELL AFB    NOT AVBL
GREENVILLE     LGT RAIN  74  70  87 SE3       30.05S
$$

ALZ019-021-028-029-037-038-045>048-291000-
EAST CENTRAL ALABAMA

CITY           SKY/WX    TMP DP  RH WIND       PRES   REMARKS
ANNISTON       MOCLDY    75  68  78 SE7       30.11R
ALEXANDER CITY CLOUDY    75  71  87 SE6       30.10R
AUBURN         CLOUDY    73  70  90 SE6       30.12R
$$

ALZ051>064-291000-
SOUTHWEST ALABAMA

CITY           SKY/WX    TMP DP  RH WIND       PRES   REMARKS
MOBILE         CLOUDY    76  74  93 SE7       30.01F
BROOKLEY FIELD CLOUDY    79  77  94 SE7       30.02S
EVERGREEN      CLOUDY    73  71  93 CALM      30.05R
$$

ALZ049-050-065>069-291000-
SOUTHEAST ALABAMA

CITY           SKY/WX    TMP DP  RH WIND       PRES   REMARKS
DOTHAN         CLOUDY    74  74 100 E5        30.11R
OZARK          MOCLDY    74  72  93 E5        30.07R
TROY           CLOUDY    73  73 100 E5        30.08S
EUFAULA        FAIR      76  71  85 SE6       30.08S
$$



USA.gov is the U.S. government's official web portal to all federal, state and local government web resources and services.